Regional Weather Roundup
Issued by NWS Upton, NY

Current Version | Previous Version | Text Only | Print | Product List | Glossary On
Versions: 1 2 3 4 5 6 7 8 9 10 11 12 13 14 15 16 17 18 19 20 21 22 23 24 25 26 27 28 29 30 31 32 33 34 35 36 37 38 39 40 41 42 43 44 45 46 47 48
000 ASUS41 KOKX 282105 RWROKX REGIONAL WEATHER ROUNDUP NATIONAL WEATHER SERVICE NEW YORK NY 400 PM EST FRI NOV 28 2014 NOTE: "FAIR" INDICATES FEW OR NO CLOUDS BELOW 12,000 FEET WITH NO SIGNIFICANT WEATHER AND/OR OBSTRUCTIONS TO VISIBILITY. NYZ071-072-176-178-NJZ106-104-282200- NEW YORK CITY METRO AREA CITY SKY/WX TMP DP RH WIND PRES REMARKS CENTRAL PARK CLEAR 33 12 41 NW9G20 30.21R WCI 25 LAGUARDIA APRT PTCLDY 34 16 47 NW15G25 30.19R WCI 24 KENNEDY INTL PTCLDY 35 14 42 NW16 30.19R WCI 25 NEWARK/LIBERTY PTCLDY 33 14 45 NW21G28 30.20R WCI 21 BRNX BOT. GARD N/A N/A N/A N/A NW10 30.21R TETERBORO PTCLDY 33 15 47 W12G22 30.19R WCI 24 $$ NYZ177-179-078>081-282200- LONG ISLAND NEW YORK CITY SKY/WX TMP DP RH WIND PRES REMARKS FARMINGDALE PTCLDY 35 16 45 NW10G17 30.18R WCI 27 ISLIP PTCLDY 36 18 48 W17G23 30.15R WCI 26 SHIRLEY PTCLDY 36 19 50 W15G22 30.16R WCI 27 WESTHAMPTON PTCLDY 35 18 49 NW12 30.15R WCI 27 MONTAUK POINT N/A 37 19 48 NW13G18 30.13R WCI 29 $$ NYZ052-065-067-282200- HUDSON VALLEY CITY SKY/WX TMP DP RH WIND PRES REMARKS WHITE PLAINS PTCLDY 31 14 49 W16G24 30.16R WCI 20 NEWBURGH PTCLDY 28 18 64 W14G23 30.18R WCI 17 MONTGOMERY CLEAR 29 13 51 NW9 30.17R WCI 20 POUGHKEEPSIE PTCLDY 31 14 49 W10 30.18R WCI 22 ALBANY MOCLDY 29 14 53 W13 30.18R WCI 19 $$ NJZ001-105-106-008-010-013-015-019>022-104-282200- NEW JERSEY CITY SKY/WX TMP DP RH WIND PRES REMARKS NEWARK/LIBERTY PTCLDY 33 14 45 NW21G28 30.20R WCI 21 TETERBORO PTCLDY 33 15 47 W12G22 30.19R WCI 24 CALDWELL CLEAR 31 11 43 NW10G17 30.20R WCI 22 MORRISTOWN CLEAR 32 18 55 N10G21 30.21R WCI 24 SOMERVILLE CLEAR 33 14 45 NW12G17 30.20R WCI 24 SUSSEX CLEAR 29 12 49 W5 30.19R WCI 24 ANDOVER N/A 29 12 49 VRB5 30.20R WCI 24 TRENTON CLEAR 33 13 43 NW14G23 30.21R WCI 23 MILLVILLE CLEAR 36 15 42 NW15G22 30.24R WCI 27 ATLANTIC CITY CLEAR 36 16 44 NW18 30.21R WCI 26 WRIGHTSTOWN CLEAR 36 12 38 W15 30.18R WCI 26 TOMS RIVER CLEAR 34 14 44 NW5 30.21R WCI 30 BELMAR CLEAR 34 14 44 NW12G21 30.19R WCI 25 $$ PAZ047>061-062-071-282200- EASTERN PENNSYLVANIA CITY SKY/WX TMP DP RH WIND PRES REMARKS PHILADELPHIA PTCLDY 37 15 40 W17G26 30.24R WCI 27 ALLENTOWN CLOUDY 32 14 47 W9G17 30.22R WCI 24 SCRANTON CLEAR 26 11 52 NW12G18 30.18S WCI 16 $$ CTZ002-004>006-009-010-012-RIZ004-006-007-MAZ004-011-015-282200- SOUTHERN NEW ENGLAND IN CT CITY SKY/WX TMP DP RH WIND PRES REMARKS BRADLEY INTL PTCLDY 32 17 54 NW9 30.13R WCI 24 HARTFORD PTCLDY 32 19 58 W8 30.16R WCI 25 DANBURY PTCLDY 30 13 49 W8G18 30.16R WCI 22 WTRBRY/OXFORD MOCLDY 30 18 59 MISG 30.13R BRIDGEPORT CLEAR 35 18 49 W10G21 30.16R WCI 27 MERIDEN CLOUDY 33 17 51 NW10 30.15R WCI 25 NEW HAVEN MOCLDY 38 20 48 NW8 30.15R WCI 32 CHESTER MOCLDY 34 18 51 NW9 30.12R WCI 26 GROTON CLEAR 33 17 51 NW13 30.13R WCI 24 WILLIMANTIC CLOUDY 34 16 47 NW8G18 30.13R WCI 27 IN RI CITY SKY/WX TMP DP RH WIND PRES REMARKS PROVIDENCE PTCLDY 34 17 50 W14 30.11R WCI 25 BLOCK ISLAND PTCLDY 36 16 44 NW9G18 30.10R WCI 29 WESTERLY CLEAR 35 15 44 NW8 30.12R WCI 29 IN MA CITY SKY/WX TMP DP RH WIND PRES REMARKS BOSTON MOCLDY 33 18 53 NW15 30.10R WCI 23 WORCESTER PTCLDY 27 17 66 W10 30.06R WCI 17 WESTFIELD CLEAR 31 17 56 W10G20 30.13R WCI 22 PROVINCETOWN MOCLDY 34 21 60 NW21G26 30.08R WCI 22 NANTUCKET MOCLDY 35 22 58 NW20G26 30.06R WCI 24 $$ ANZ330-335-338-340-345-350-353-355-282200- COASTAL MARINE OBSERVATIONS STATION/POSITION TIME SKY/WX TEMP WIND PRES VSBY WAVE AIR SEA DIR/SP/G HT/PER (UTC) (F) (DEG/KT/KT) (MB) (MI) (FT/S) NY HARB ENTRANCE 2100 37 53 300/ 19/ 23 1021.9 3/ 4 4S FIRE IS 2100 52 N/A 3/ 4 20S FIRE ISLAND 2100 38 53 310/ 19/ 23 1020.9 4/ 5 23SW MTP 2100 N/A 5/ 5 HUDSON CANYON 2100 40 58 320/ 19/ 27 1020.5 7/ 6 EXECUTION ROCKS 2100 37 47 310/ 16/ 21 N/A WESTERN LI SOUND 2100 35 310/ 17/ 23 N/A 2/ 3 CENTRAL LI SOUND 2000 37 50 310/ 14/ 17 N/A 2/ 4 EASTERN LI SOUND 2000 38 51 340/ 16/ 23 N/A ROBBINS REEF 2100 33 320/ 16/ 22 1021.2 $$ >>>>>>>>>>>>>>>>>>>>>>>>>>>> KEY <<<<<<<<<<<<<<<<<<<<<<<<<<< > < > SKY/WX - SKY CONDITION/PRESENT WEATHER < > TMP - TEMPERATURE IN FAHRENHEIT < > DP - DEWPOINT IN FAHRENHEIT < > RH - RELATIVE HUMIDITY IN PERCENT < > WIND - DIRECTION AND SPEED IN MPH < > PRES - MEAN SEA LEVEL PRESSURE IN INCHES OF HG < > WCI - WIND CHILL INDEX < > VSB - VISIBILITY IN MILES < > HX - HEAT INDEX < > TC - TEMPERATURE IN CELSIUS < > VRB - VARIABLE WIND DIRECTION < > < >>>>>>>>>>>>>>>>>>>>>>>>>>>> KEY <<<<<<<<<<<<<<<<<<<<<<<<<<<

USA.gov is the U.S. government's official web portal to all federal, state and local government web resources and services.